Weather Roundup
Issued by NWS

Home | Current Version | Previous Version | Text Only | Print | Product List | Glossary On
Versions: 1 2 3 4 5 6 7 8 9 10 11 12 13 14 15 16 17 18 19 20 21 22 23 24 25 26 27 28 29 30 31 32 33 34 35 36 37 38 39 40 41 42 43 44 45 46 47 48 49 50
000
NZUS93 KARX 221459
HRRWXR

CURRENT HOURLY OBSERVATIONS ACROSS
MUCH OF THE UPPER MISSISSIPPI VALLEY
NATIONAL WEATHER SERVICE LA CROSSE WI
900 AM CST THU FEB 22 2018


...SOUTHEAST MINNESOTA...


CITY           SKY/WX    TMP DP  RH WIND       PRES   REMARKS
ROCHESTER      FAIR      20  17  88 E12       30.52S WCI   8
ROCHESTER/MAYO CLOUDY    19  14  81 E7        30.55R WCI  10
WINONA         CLOUDY    19  16  86 CALM      30.59F
AUSTIN         FAIR      21  18  86 E8        30.50S WCI  12
ALBERT LEA     FAIR      21  18  86 E8        30.50S WCI  12
DODGE CENTER   FAIR      19  14  79 E7        30.51S WCI  10
PRESTON        PTSUNNY   20  16  85 E8        30.54S WCI  10
OWATONNA       FAIR      19  14  79 E9        30.52S WCI   9
FARIBAULT      CLOUDY    18  10  73 NE8       30.53F WCI   7
$$

...ELSEWHERE IN MINNESOTA...


CITY           SKY/WX    TMP DP  RH WIND       PRES   REMARKS
MINNEAPOLIS    CLOUDY    17   7  64 E8        30.57F WCI   7
INTNL FALLS    FAIR      -3  -7  82 SE5       30.52S WCI -13
DULUTH         FAIR       7   2  80 CALM      30.54F
RED WING       PTSUNNY   16   7  67 SE5       30.59S WCI   9
REDWOOD FALLS  CLOUDY    13   7  77 E5        30.52F WCI   5
MANKATO        CLOUDY    18  12  77 E7        30.54S WCI   9
WORTHINGTON    CLOUDY    16  13  88 E8        30.46S WCI   5
FAIRMONT       CLOUDY    18  14  84 NE6       30.50F WCI  10
$$

...SOUTHWEST WISCONSIN...


CITY           SKY/WX    TMP DP  RH WIND       PRES   REMARKS
LA CROSSE      CLOUDY    24  16  71 VRB3      30.61F
PRAIRIE DU CHI CLOUDY    26  13  58 NE7       30.59S WCI  18
BOSCOBEL       CLOUDY    27  16  63 NE7       30.61S WCI  19
LONE ROCK      NOT AVBL
PLATTEVILLE    FAIR      26  19  76 E14       30.56R WCI  14
FORT MC COY    CLOUDY    21  15  77 E6        30.62F WCI  13
CAMP DOUGLAS   CLOUDY    21  12  68 E8        30.61R WCI  12
MAUSTON-NEW LI CLOUDY    22  13  67 E3        30.61R
VIROQUA        CLOUDY    22  18  85 E7        30.58R WCI  13
WIS DELLS      CLOUDY    21  13  71 E5        30.60R WCI  15
$$

...ELSEWHERE IN WISCONSIN...


CITY           SKY/WX    TMP DP  RH WIND       PRES   REMARKS
MILWAUKEE      PTSUNNY   33  26  75 NE12      30.61S WCI  24
MADISON        CLOUDY    25  18  74 E10       30.59F WCI  15
GREEN BAY      PTSUNNY   22  12  65 NE12      30.66F WCI  10
EAU CLAIRE     NOT AVBL
BLACK RVR FLS  CLOUDY    18  12  77 NE3       30.62F
MEDFORD        FAIR      11   4  74 NE6       30.59S WCI   1
WAUSAU         CLOUDY    15   8  73 CALM      30.60S
WIS RAPIDS     CLOUDY    20  10  65 E8        30.62F WCI  10
MARSHFIELD     CLOUDY    15   7  70 E6        30.59R WCI   6
RICE LAKE      FAIR       4   2  89 SE5       30.62F WCI  -5
$$

...NORTHEAST IOWA...


CITY           SKY/WX    TMP DP  RH WIND       PRES   REMARKS
WATERLOO       CLOUDY    26  16  65 E12       30.52F WCI  16
DUBUQUE        CLOUDY    25  16  68 NE13      30.54R WCI  14
DECORAH        CLOUDY    23  18  80 E9        30.53F WCI  13
MASON CITY     PTSUNNY   22  17  81 E7        30.50F WCI  13
CHARLES CITY   CLOUDY    25  21  86 E14       30.50F WCI  13
OELWEIN        FAIR      25  19  80 E13       30.52S WCI  13
$$

...ELSEWHERE IN IOWA...


CITY           SKY/WX    TMP DP  RH WIND       PRES   REMARKS
DES MOINES     LGT SNOW  25  21  85 E13       30.44F FOG     WCI  14
IOWA CITY      CLOUDY    31  19  61 NE13      30.51F WCI  21
FORT DODGE     CLOUDY    24  18  77 E12       30.47S WCI  13
MARSHALLTOWN   CLOUDY    25  17  72 E14       30.47F WCI  13
CEDAR RAPIDS   CLOUDY    29  16  58 E17       30.48F WCI  17
$$

...NORTHERN ILLINOIS...


CITY           SKY/WX    TMP DP  RH WIND       PRES   REMARKS
CHICAGO-OHARE  PTSUNNY   36  28  73 NE14      30.55S WCI  27
CHICAGO-MIDWAY CLOUDY    36  30  79 E10       30.55R WCI  28
MOLINE         CLOUDY    31  24  75 E13       30.49F WCI  21
ROCKFORD       CLOUDY    31  23  72 NE12      30.56F WCI  22
PEORIA         CLOUDY    33  30  88 E13       30.47R WCI  24
$$

NOTE: "FAIR" INDICATES FEW OR NO CLOUDS BELOW 12,000 FEET WITH NO
SIGNIFICANT WEATHER AND/OR OBSTRUCTIONS TO VISIBILITY. WIND
SPEEDS ARE IN MILES-PER-HOUR.




USA.gov is the U.S. government's official web portal to all federal, state and local government web resources and services.